User: anonymous   Login
Location: Unspecified
(0.0000°N, 0.0000°E)
Time: 20:47:47
(UTC+00:00)
Language:

ISS - Orbit

View from above orbital plane
View from above orbital plane
View from above satellite
View from above satellite

Ground track
Ground track

The orbit data is extracted from the following two-line orbital elements,

1 25544U 98067A   14324.60342453  .00023778  00000-0  40479-3 0  4372
2 25544 051.6464 044.1268 0006772 050.3462 095.4205 15.51251598915591
Epoch (UTC): 20 November 2014 14:28:55
Eccentricity: 0.0006772
inclination: 51.6464°
perigee height: 408 km
apogee height: 417 km
right ascension of ascending node: 44.1268°
argument of perigee: 50.3462°
revolutions per day: 15.51251598
mean anomaly at epoch: 95.4205°
orbit number at epoch: 91559

The dashed part of the orbit path shows where the satellite is in the earth's shadow,  

DLR